Flag for China Weather past 2 weeks in Chongqing, China

Now
81 °F

Sunny.


Feels Like: 83 °F
Forecast: 71 / 79 °F
Wind: 1 mph from North

Location: Chongqing Airport


UV Index: 0 (Low)

Visibility: 10 mi


Pressure: 29.68 "Hg

Humidity: 62%

Dew point: 66 °F

Location of ChongqingLocation

Historic Weather in Chongqing

°F

Chongqing temperature yesterday

Maximum temperature yesterday: 86 °F (at 3:00 PM)
Minimum temperature yesterday: 68 °F (at 2:00 AM)
Average temperature yesterday: 76 °F

Past Weeks' High & Low Weather Summary

 TemperatureHumidityPressure
High86 °F (Apr 17, 3:00 PM)100% (Apr 11, 5:00 AM)30.15 "Hg (Apr 11, 5:00 AM)
Low57 °F (Apr 5, 10:00 AM)47% (Apr 8, 2:00 PM)29.56 "Hg (Apr 17, 4:00 PM)
Average68 °F77%29.88 "Hg
* Reported Apr 3 10:00 AM — Apr 18 10:00 AM, Chongqing, Weather by CustomWeather, © 2014

Note: Actual official high and low records may vary slightly from our data, if they occured in-between our weather recording intervals... More about our weather records

Advertising

Historic Weather Conditions — Data for Previous 24 hours

 ConditionsComfort  
Time TempWeatherWind HumidityBarometerVisibility
10:00 AM
Apr 18
77 °FPassing clouds.3 mph74%29.68 "HgN/A
9:00 AM75 °FPassing clouds.3 mph74%29.68 "HgN/A
8:00 AM72 °FPartly sunny.1 mph83%29.65 "HgN/A
7:00 AM72 °FPartly sunny.No wind83%29.62 "HgN/A
6:00 AM70 °FPassing clouds.8 mph88%29.59 "HgN/A
5:00 AM70 °FClear.10 mph88%29.59 "Hg10 mi
4:00 AM70 °FClear.8 mph88%29.59 "Hg10 mi
3:00 AM70 °FClear.8 mph88%29.59 "Hg10 mi
2:00 AM72 °FClear.6 mph83%29.62 "Hg10 mi
1:00 AM72 °FThunderstorms. Fog.6 mph88%29.65 "Hg2 mi
12:00 AM77 °FThunderstorms. Passing clouds.13 mph69%29.62 "HgN/A
11:00 PM
Apr 17
77 °FClear.15 mph69%29.65 "Hg10 mi
10:00 PM77 °FClear.15 mph69%29.65 "Hg10 mi
9:00 PM77 °FClear.17 mph69%29.62 "Hg10 mi
8:00 PM79 °FClear.15 mph65%29.62 "Hg10 mi
7:00 PM81 °FSunny.15 mph66%29.59 "Hg10 mi
6:00 PM84 °FSunny.10 mph58%29.56 "Hg10 mi
5:00 PM84 °FScattered clouds.10 mph58%29.56 "HgN/A
4:00 PM86 °FSunny.3 mph55%29.56 "Hg10 mi
3:00 PM86 °FSunny.3 mph52%29.59 "Hg10 mi
2:00 PM84 °FPassing clouds.6 mph55%29.62 "HgN/A
1:00 PM81 °FPassing clouds.3 mph66%29.68 "HgN/A
12:00 PM81 °FPassing clouds.6 mph62%29.71 "HgN/A
11:00 AM77 °FSunny.3 mph69%29.74 "Hg10 mi
Weather by CustomWeather, © 2014

See weather overview